EUR65 DAOB-VABB

Flight info

Callsign EUR65
Flight time N/A
Altitude 38000
Route VABB EXOLU NOBAT LADOT RASKI VAXIM DORAB ALSAS TONVO SHJ MUTVI ORSAR EGMID DURSI IMDAT ALNIN OBMOR NANPI DESLU SIDAD BSR DISAR LOVEK PUSTO RAPLU MODIK TAN SULAF ABBAS SOFIA DAM KAD KUKLA DESPO REXAL LCA RUBIK TOBAL TOSKA AMONO VAXOS GISOS PERIM VEREK TELRI LAPSO SIT AMAXI OTREX PLH PIDAS DEMAG ALIXA BINKO EVIRA AGARI GZO ASDAX DOBIX SONAK DIDON TUC DAOB
Aircraft A388/J-DGVW/C

Departure

Time 2026-04-26 18:03
Airport Abdelhafid Boussouf Bou Chekif Airport (DAOB)

Arrival

Time N/A
Airport Chhatrapati Shivaji Maharaj International Airport (VABB)
Time Latitude Longitude Altitude Speed Heading
2026-04-26 17:59 35.34358 1.46644 3256 ft 10 kts 198°
2026-04-26 17:59 35.34320 1.46556 3256 ft 17 kts 261°
2026-04-26 17:59 35.34296 1.46371 3256 ft 27 kts 261°
2026-04-26 17:59 35.34262 1.46101 3256 ft 37 kts 259°
2026-04-26 18:00 35.34212 1.45749 3256 ft 47 kts 261°
2026-04-26 18:00 35.34155 1.45315 3256 ft 56 kts 262°
2026-04-26 18:00 35.34096 1.44833 3256 ft 45 kts 259°
2026-04-26 18:00 35.34029 1.44671 3256 ft 16 kts 184°
2026-04-26 18:01 35.33909 1.44690 3256 ft 14 kts 141°
2026-04-26 18:01 35.33897 1.44757 3256 ft 0 kts 81°
2026-04-26 18:02 35.33898 1.44762 3256 ft 8 kts 82°
2026-04-26 18:02 35.33917 1.44918 3256 ft 49 kts 81°
2026-04-26 18:02 35.34053 1.45949 3256 ft 133 kts 81°
2026-04-26 18:02 35.34231 1.47301 3353 ft 183 kts 79°
2026-04-26 18:03 35.34443 1.48981 4189 ft 208 kts 79°
2026-04-26 18:03 35.34672 1.50824 5228 ft 229 kts 78°
2026-04-26 18:03 35.35077 1.52806 6288 ft 251 kts 73°
2026-04-26 18:03 35.35579 1.54926 7311 ft 262 kts 73°
2026-04-26 18:04 35.36080 1.56985 8276 ft 250 kts 74°
2026-04-26 18:04 35.36575 1.59026 9272 ft 252 kts 75°
2026-04-26 18:04 35.37068 1.61114 10276 ft 259 kts 77°
2026-04-26 18:05 35.38068 1.65562 11926 ft 295 kts 78°
2026-04-26 18:05 35.38610 1.68091 12455 ft 315 kts 79°
2026-04-26 18:05 35.39164 1.70695 12955 ft 315 kts 78°
2026-04-26 18:05 35.39717 1.73300 13456 ft 318 kts 78°
2026-04-26 18:06 35.40278 1.75950 13961 ft 325 kts 78°
2026-04-26 18:06 35.40847 1.78649 14466 ft 329 kts 78°
2026-04-26 18:06 35.41421 1.81375 14967 ft 332 kts 78°
2026-04-26 18:06 35.42001 1.84128 15469 ft 335 kts 78°
2026-04-26 18:07 35.42586 1.86909 15972 ft 338 kts 78°
2026-04-26 18:07 35.43175 1.89714 16474 ft 341 kts 77°
2026-04-26 18:07 35.43768 1.92539 16974 ft 344 kts 77°
2026-04-26 18:07 35.44162 1.94424 17307 ft 346 kts 77°
2026-04-26 18:08 35.44964 1.98267 17978 ft 349 kts 77°
2026-04-26 18:08 35.45568 2.01165 18479 ft 352 kts 77°
2026-04-26 18:08 35.46177 2.04085 18981 ft 355 kts 77°
2026-04-26 18:08 35.46789 2.07033 19483 ft 358 kts 77°
2026-04-26 18:09 35.47404 2.10002 19984 ft 361 kts 77°
2026-04-26 18:09 35.48023 2.12995 20486 ft 363 kts 77°
2026-04-26 18:09 35.48645 2.16010 20987 ft 366 kts 77°
2026-04-26 18:09 35.49273 2.19054 21488 ft 369 kts 77°
2026-04-26 18:10 35.49905 2.22123 21990 ft 372 kts 77°
2026-04-26 18:10 35.50540 2.25215 22492 ft 375 kts 77°
2026-04-26 18:10 35.51171 2.28288 22986 ft 378 kts 77°
2026-04-26 18:10 35.51823 2.31469 23494 ft 381 kts 77°
2026-04-26 18:11 35.52471 2.34635 23995 ft 384 kts 77°
2026-04-26 18:11 35.53123 2.37828 24497 ft 387 kts 77°
2026-04-26 18:11 35.53780 2.41046 24999 ft 390 kts 77°
2026-04-26 18:11 35.54443 2.44293 25501 ft 394 kts 77°
2026-04-26 18:12 35.55109 2.47567 26003 ft 397 kts 77°
2026-04-26 18:12 35.55771 2.50824 26497 ft 400 kts 77°
2026-04-26 18:12 35.56446 2.54150 26999 ft 403 kts 77°
2026-04-26 18:12 35.57126 2.57506 27500 ft 407 kts 77°
2026-04-26 18:13 35.57812 2.60895 28002 ft 410 kts 77°
2026-04-26 18:13 35.58501 2.64309 28503 ft 414 kts 77°
2026-04-26 18:13 35.59196 2.67759 29005 ft 418 kts 77°
2026-04-26 18:13 35.59669 2.70109 29343 ft 421 kts 77°
2026-04-26 18:14 35.60599 2.74756 30011 ft 426 kts 76°
2026-04-26 18:14 35.61306 2.78303 30513 ft 429 kts 76°
2026-04-26 18:14 35.62019 2.81874 31013 ft 431 kts 76°
2026-04-26 18:14 35.62737 2.85466 31513 ft 435 kts 76°
2026-04-26 18:15 35.63461 2.89089 32013 ft 439 kts 76°
2026-04-26 18:15 35.64193 2.92750 32514 ft 443 kts 76°
2026-04-26 18:15 35.64931 2.96452 33015 ft 448 kts 76°
2026-04-26 18:15 35.65676 3.00196 33517 ft 453 kts 77°
2026-04-26 18:16 35.66429 3.03982 34018 ft 458 kts 77°
2026-04-26 18:16 35.67952 3.11681 35021 ft 468 kts 77°
2026-04-26 18:16 35.68724 3.15599 35522 ft 474 kts 77°
2026-04-26 18:17 35.69502 3.19556 36023 ft 479 kts 77°
2026-04-26 18:17 35.70287 3.23558 36524 ft 484 kts 77°
2026-04-26 18:17 35.71081 3.27611 36931 ft 492 kts 77°
2026-04-26 18:17 35.71893 3.31763 37053 ft 506 kts 77°
2026-04-26 18:18 35.72726 3.36032 37093 ft 518 kts 77°
2026-04-26 18:18 35.73566 3.40341 37091 ft 517 kts 77°
2026-04-26 18:18 35.75230 3.48901 37084 ft 512 kts 77°
2026-04-26 18:19 35.76881 3.57426 37075 ft 511 kts 77°
2026-04-26 18:19 35.78525 3.65949 37072 ft 511 kts 77°
2026-04-26 18:20 35.80161 3.74473 37071 ft 512 kts 77°
2026-04-26 18:20 35.81241 3.80123 37071 ft 512 kts 77°
2026-04-26 18:21 35.83416 3.91546 37070 ft 512 kts 77°
2026-04-26 18:21 35.85035 4.00087 37069 ft 512 kts 77°
2026-04-26 18:22 35.86647 4.08632 37069 ft 512 kts 77°
2026-04-26 18:22 35.88254 4.17186 37070 ft 512 kts 77°
2026-04-26 18:23 35.89853 4.25739 37066 ft 512 kts 77°
2026-04-26 18:23 35.91178 4.32848 37065 ft 512 kts 77°
2026-04-26 18:24 35.93024 4.42796 37066 ft 512 kts 78°
2026-04-26 18:24 35.94605 4.51354 37078 ft 512 kts 78°
2026-04-26 18:25 35.95926 4.58529 37084 ft 512 kts 78°
2026-04-26 18:25 35.97494 4.67089 37100 ft 511 kts 78°
2026-04-26 18:26 35.99058 4.75657 37109 ft 512 kts 78°
2026-04-26 18:26 36.00605 4.84168 37116 ft 511 kts 78°
2026-04-26 18:27 36.02153 4.92711 37120 ft 509 kts 78°
2026-04-26 18:27 36.03688 5.01231 37125 ft 507 kts 79°
2026-04-26 18:28 36.05213 5.09737 37129 ft 507 kts 79°
2026-04-26 18:28 36.06731 5.18243 37132 ft 507 kts 79°
2026-04-26 18:29 36.08244 5.26757 37135 ft 507 kts 79°
2026-04-26 18:29 36.09752 5.35278 37138 ft 508 kts 79°
2026-04-26 18:30 36.11255 5.43811 37140 ft 508 kts 79°
2026-04-26 18:30 36.12754 5.52354 37140 ft 509 kts 79°
2026-04-26 18:31 36.14248 5.60911 37138 ft 509 kts 79°
2026-04-26 18:31 36.15737 5.69475 37135 ft 510 kts 79°
2026-04-26 18:32 36.17221 5.78049 37131 ft 510 kts 79°
2026-04-26 18:32 36.18702 5.86639 37129 ft 510 kts 79°
2026-04-26 18:33 36.20177 5.95238 37124 ft 511 kts 79°
2026-04-26 18:33 36.21645 6.03837 37122 ft 510 kts 79°
2026-04-26 18:34 36.23104 6.12433 37118 ft 509 kts 79°
2026-04-26 18:34 36.24553 6.20999 37113 ft 508 kts 79°
2026-04-26 18:35 36.25994 6.29546 37113 ft 506 kts 79°
2026-04-26 18:35 36.27431 6.38115 37113 ft 509 kts 79°
2026-04-26 18:36 36.28864 6.46696 37110 ft 508 kts 79°
2026-04-26 18:36 36.30281 6.55222 37111 ft 509 kts 79°
2026-04-26 18:37 36.31712 6.63871 37111 ft 509 kts 79°
2026-04-26 18:37 36.33127 6.72470 37111 ft 509 kts 79°
2026-04-26 18:38 36.34522 6.80980 37106 ft 506 kts 79°
2026-04-26 18:38 36.35920 6.89552 37110 ft 508 kts 79°
2026-04-26 18:39 36.37320 6.98182 37118 ft 513 kts 79°
2026-04-26 18:39 36.38720 7.06852 37109 ft 512 kts 79°
2026-04-26 18:40 36.40110 7.15502 37106 ft 511 kts 79°
2026-04-26 18:40 36.41493 7.24147 37104 ft 511 kts 79°
2026-04-26 18:41 36.42871 7.32802 37102 ft 511 kts 79°
2026-04-26 18:41 36.44242 7.41463 37100 ft 511 kts 79°
2026-04-26 18:42 36.45607 7.50120 37097 ft 511 kts 79°
2026-04-26 18:42 36.46967 7.58793 37094 ft 511 kts 79°
2026-04-26 18:43 36.48320 7.67463 37092 ft 511 kts 79°
2026-04-26 18:43 36.49668 7.76140 37087 ft 512 kts 79°
2026-04-26 18:44 36.51010 7.84826 37084 ft 512 kts 79°
2026-04-26 18:44 36.52345 7.93515 37083 ft 512 kts 79°
2026-04-26 18:45 36.53672 8.02188 37083 ft 512 kts 79°
2026-04-26 18:45 36.54994 8.10893 37083 ft 513 kts 79°
2026-04-26 18:46 36.56305 8.19557 37085 ft 513 kts 79°
2026-04-26 18:46 36.57620 8.28288 37085 ft 514 kts 79°
2026-04-26 18:47 36.58929 8.37024 37084 ft 514 kts 79°
2026-04-26 18:47 36.60233 8.45768 37084 ft 514 kts 79°
2026-04-26 18:48 36.61530 8.54517 37083 ft 514 kts 79°
2026-04-26 18:48 36.62821 8.63269 37083 ft 514 kts 79°
2026-04-26 18:49 36.64106 8.72025 37082 ft 514 kts 79°
2026-04-26 18:49 36.65383 8.80782 37083 ft 514 kts 79°
2026-04-26 18:50 36.66655 8.89544 37083 ft 514 kts 79°
2026-04-26 18:50 36.67920 8.98310 37083 ft 514 kts 79°
2026-04-26 18:51 36.69179 9.07077 37084 ft 514 kts 79°
2026-04-26 18:51 36.70431 9.15850 37085 ft 514 kts 79°
2026-04-26 18:52 36.71676 9.24622 37087 ft 514 kts 79°
2026-04-26 18:52 36.72916 9.33401 37091 ft 514 kts 79°
2026-04-26 18:53 36.74149 9.42184 37094 ft 514 kts 79°
2026-04-26 18:53 36.75375 9.50969 37097 ft 514 kts 79°
2026-04-26 18:54 36.76595 9.59755 37100 ft 514 kts 79°
2026-04-26 18:54 36.77809 9.68548 37102 ft 514 kts 79°
2026-04-26 18:55 36.79015 9.77341 37105 ft 514 kts 79°
2026-04-26 18:55 36.80215 9.86136 37110 ft 514 kts 79°
2026-04-26 18:56 36.81408 9.94932 37111 ft 514 kts 80°
2026-04-26 18:56 36.82593 10.03733 37112 ft 514 kts 79°
2026-04-26 18:57 36.83569 10.11033 37111 ft 513 kts 79°
2026-04-26 18:57 36.84768 10.21250 37108 ft 512 kts 85°
2026-04-26 18:58 36.84393 10.30130 37114 ft 513 kts 97°
2026-04-26 18:58 36.83126 10.38876 37114 ft 512 kts 103°
2026-04-26 18:59 36.81498 10.47510 37115 ft 511 kts 105°
2026-04-26 18:59 36.79758 10.56106 37121 ft 511 kts 105°
2026-04-26 19:00 36.78017 10.64693 37126 ft 510 kts 105°
2026-04-26 19:00 36.76315 10.73284 37130 ft 510 kts 104°
2026-04-26 19:01 36.74657 10.81893 37135 ft 511 kts 104°
2026-04-26 19:01 36.73036 10.90512 37137 ft 511 kts 104°
2026-04-26 19:02 36.71442 10.99145 37139 ft 511 kts 104°
2026-04-26 19:02 36.70115 11.06377 37139 ft 511 kts 104°
2026-04-26 19:03 36.68269 11.16408 37142 ft 511 kts 104°
2026-04-26 19:03 36.66672 11.25040 37144 ft 512 kts 104°
2026-04-26 19:04 36.65066 11.33678 37146 ft 512 kts 104°
2026-04-26 19:04 36.63450 11.42316 37149 ft 513 kts 104°
2026-04-26 19:05 36.61008 11.55282 37155 ft 513 kts 104°
2026-04-26 19:06 36.59371 11.63932 37159 ft 514 kts 104°
2026-04-26 19:06 36.57725 11.72585 37162 ft 514 kts 104°
2026-04-26 19:07 36.56071 11.81240 37164 ft 515 kts 104°
2026-04-26 19:07 36.54409 11.89901 37165 ft 515 kts 104°
2026-04-26 19:08 36.52739 11.98562 37166 ft 515 kts 104°
2026-04-26 19:08 36.51061 12.07213 37168 ft 513 kts 104°
2026-04-26 19:09 36.49338 12.15784 37166 ft 510 kts 104°
2026-04-26 19:09 36.47556 12.24295 37166 ft 508 kts 105°
2026-04-26 19:10 36.45745 12.32773 37166 ft 508 kts 105°
2026-04-26 19:10 36.44228 12.39815 37166 ft 508 kts 105°
2026-04-26 19:11 36.42096 12.49653 37165 ft 508 kts 105°
2026-04-26 19:11 36.40255 12.58117 37165 ft 508 kts 105°
2026-04-26 19:12 36.38708 12.65213 37167 ft 508 kts 105°
2026-04-26 19:12 36.36857 12.73679 37168 ft 509 kts 105°
2026-04-26 19:13 36.34999 12.82155 37167 ft 509 kts 105°
2026-04-26 19:13 36.33133 12.90639 37170 ft 510 kts 105°
2026-04-26 19:14 36.31259 12.99129 37170 ft 511 kts 105°
2026-04-26 19:14 36.29376 13.07629 37170 ft 512 kts 105°
2026-04-26 19:15 36.27557 13.15811 37170 ft 512 kts 105°
2026-04-26 19:15 36.25658 13.24325 37170 ft 513 kts 105°
2026-04-26 19:16 36.23753 13.32846 37170 ft 514 kts 105°
2026-04-26 19:16 36.21851 13.41317 37170 ft 513 kts 105°
2026-04-26 19:17 36.19948 13.49765 37168 ft 505 kts 105°
2026-04-26 19:17 36.18084 13.58006 37168 ft 491 kts 105°
2026-04-26 19:18 36.16255 13.66066 37167 ft 475 kts 105°